Regional Weather Roundup
Issued by NWS

Home | Current Version | Previous Version | Text Only | Print | Product List | Glossary Off
Versions: 1 2 3 4 5 6 7 8 9 10 11 12 13 14 15 16 17 18 19 20 21 22 23 24 25 26 27 28 29 30 31 32 33 34 35 36 37 38 39 40 41 42 43 44 45 46 47 48 49 50

000
ASUS43 KMPX 201310
RWRMN
WEATHER ROUNDUP FOR MINNESOTA
NATIONAL WEATHER SERVICE TWIN CITIES/CHANHASSEN MN
800 AM CDT SAT SEP 20 2014


NOTE: "FAIR" INDICATES FEW OR NO CLOUDS BELOW 12,000 FEET WITH NO
SIGNIFICANT WEATHER AND/OR OBSTRUCTIONS TO VISIBILITY. N/A MEANS
CURRENT SKY AND/OR WEATHER CONDITIONS ARE NOT AVAILABLE.

MNZ060>063-068>070-201400-
   Twin Cities Metro

CITY           SKY/WX    TMP DP  RH WIND       PRES   REMARKS
TWIN CITIES    MOSUNNY   64  58  80 NW12      29.77R
ST PAUL        PTSUNNY   64  59  83 NW15      29.77R
CRYSTAL        SUNNY     63  57  81 NW13      29.76R
BLAINE         MOSUNNY   63  61  94 W12       29.77R
LAKEVILLE      MOSUNNY   64  61  88 W7        29.77R
EDEN PRAIRIE   SUNNY     64  59  83 NW13      29.77R
SOUTH ST PAUL  MOSUNNY   67  61  80 NW8       29.76R
LAKE ELMO      FAIR      64  61  88 NW10      29.77R
$$
MNZ001>005-007-008-013>017-022>024-027-028-201400-
   Northwest Minnesota

CITY           SKY/WX    TMP DP  RH WIND       PRES   REMARKS
BEMIDJI        CLOUDY    54  51  88 NW7       29.78R
HALLOCK        FOG       48  46  93 CALM      29.77S VSB<1/4
ROSEAU         CLEAR     50  45  81 W6        29.76S
WARROAD        CLEAR     48  45  87 SW6       29.76R
THIEF RVR FALL CLOUDY    54  52  94 W6        29.80S
CROOKSTON      CLOUDY    54  52  94 W3        29.81S
FOSSTON        CLOUDY    54  52  94 CALM      29.81S
DETROIT LAKES  CLOUDY    55  54  94 NW8       29.83R
MOORHEAD       PTCLDY    54  54 100 CALM      29.84R
PARK RAPIDS    PTCLDY    55  53  93 NW12      29.79R
MAHNOMEN       CLOUDY    55  53  94 NW7       29.81R
$$
MNZ006-009>011-018-025>026-201400-
   North Central Minnesota

CITY           SKY/WX    TMP DP  RH WIND       PRES   REMARKS
BAUDETTE       CLOUDY    50  47  89 NW8       29.73R
FLAG ISLAND    CLOUDY    50  48  93 NW14      29.71S
INTL FALLS     CLOUDY    52  51  97 W9        29.69R FOG
WASKISH        CLOUDY    52  48  87 W8        29.76R
BIG FORK       CLOUDY    55  52  88 NW5       29.74R
LONGVILLE      CLOUDY    55  52  88 NW9       29.77R
GRAND RAPIDS   CLOUDY    55  50  82 NW13      29.74R
CRANE LAKE     CLOUDY    55  55 100 W6        29.68R
ORR            CLOUDY    54  52  94 NW6       29.68R FOG
COOK           CLOUDY    55  54  94 W10G16    29.70R
WALKER         CLOUDY    55  52  90 W7        29.78R
$$
MNZ012-019>021-037-201400-
   Northeast Minnesota

CITY           SKY/WX    TMP DP  RH WIND       PRES   REMARKS
DULUTH         CLOUDY    62  55  77 NW16G26   29.68R
ELY            CLOUDY    57  55  94 W7        29.65R
HIBBING        CLOUDY    57  53  86 NW13G21   29.71R
EVELETH        CLOUDY    57  54  88 NW13G20   29.70R
DULUTH HARBOR  MOSUNNY   64  57  77 W18       29.67R
TWO HARBORS    PTSUNNY   61  55  82 W8        29.63R
SILVER BAY     SUNNY     61  61 100 W8        29.60R
GRAND MARAIS     N/A     54  53  97 W5        29.55R
G MARAIS ARPRT PTSUNNY   59  55  88 NW8       29.58S
$$
MNZ029>031-032-039>041-046>048-054>057-064-201400-
   West Central Minnesota

CITY           SKY/WX    TMP DP  RH WIND       PRES   REMARKS
FERGUS FALLS   CLOUDY    55  54  94 NW8       29.84R
WHEATON        CLEAR     52  52 100 W5        29.87R FOG
MORRIS         PTCLDY    55  54  94 W5        29.84R FOG
ALEXANDRIA     MOCLDY    57  55  93 W9        29.83R
ELBOW LAKE     CLOUDY    55  54  96 NW7       29.84R
WADENA         CLEAR     54  54 100 W5        29.80R
GLENWOOD       CLOUDY    57  55  94 W10       29.83R FOG
APPLETON       CLEAR     55  52  88 CALM      29.85R FOG
BENSON         CLOUDY    57  55  94 N7        29.84R FOG
ORTONVILLE     CLEAR     57  54  88 CALM      29.86R
MADISON        CLEAR     57  55  94 W6        29.86R
WILLMAR        CLOUDY    59  55  88 NW8       29.84R FOG
$$
MNZ033>034-036-042>043-049>051-058-059-201400-
   Central Minnesota

CITY           SKY/WX    TMP DP  RH WIND       PRES   REMARKS
ST CLOUD       CLEAR     60  56  86 W5        29.78R FOG
SAUK CENTRE    FAIR      56  55  97 W7        29.81R FOG
PAYNESVILLE    CLEAR     53  53 100 SW7       29.82R FOG
AITKIN         MOCLDY    61  54  77 W3        29.75R
PINE RIVER     PTCLDY    55  52  88 NW6       29.81R
BRAINERD       MOCLDY    57  54  89 NW8       29.78R
STAPLES        PTCLDY    55  54  94 W6        29.79R
LONG PRAIRIE   FAIR      55  54  94 W6        29.81R
LITTLE FALLS   CLEAR     57  55  94 W6        29.79R
LITCHFIELD     CLEAR     61  59  94 NW7       29.81S
BUFFALO        CLEAR     60  56  87 W7        29.79S
MAPLE LAKE     CLEAR     60  58  92 W6        29.79F
$$
MNZ037-044-045-052-053-201400-
   East Central Minnesota

CITY           SKY/WX    TMP DP  RH WIND       PRES   REMARKS
PRINCETON      CLEAR     61  57  88 W2        29.77R
MORA           CLEAR     59  54  82 W5        29.76R
CAMBRIDGE      SUNNY     63  54  72 W6        29.74S
RUSH CITY      MOSUNNY   60  58  91 CALM      29.74S
MOOSE LAKE     SUNNY     59  55  88 NW7       29.71R
HINCKLEY       FAIR      61  59  94 W3        29.73R
CLOQUET        PTSUNNY   61  55  82 W13       29.71R
MCGREGOR       PTCLDY    57  54  88 NW5       29.75R
$$
MNZ071>073-080-081-089-090-097-098-201400-
   Southwest Minnesota

CITY           SKY/WX    TMP DP  RH WIND       PRES   REMARKS
MONTEVIDEO     CLEAR     59  55  88 NW3       29.86R
GRANITE FALLS  CLEAR     54  54 100 W6        29.86R
CANBY          CLEAR     57  55  93 W3        29.87R
MARSHALL       PTCLDY    57  52  82 NW8       29.85R
REDWOOD FALLS  PTCLDY    60  56  86 NW10      29.83R
OLIVIA         CLEAR     57  54  88 NW7       29.82S
PIPESTONE      MOCLDY    57  55  94 W3        29.89R
WINDOM         MOCLDY    63  57  82 NW6       29.85S
WORTHINGTON    CLOUDY    61  57  88 SW7       29.89R
JACKSON        MOCLDY    63  57  82 W7        29.87R
TRACY          PTCLDY    61  57  87 CALM      29.86S
SLAYTON        CLOUDY    60  57  91 CALM      29.89R
$$
MNZ065>067-074>077-082>085-091>093-201400-
   South Central Minnesota

CITY           SKY/WX    TMP DP  RH WIND       PRES   REMARKS
MANKATO        PTCLDY    64  55  72 W9        29.81R
NEW ULM        MOCLDY    61  61 100 NW10      29.81S
ST JAMES       CLOUDY    64  57  77 W6        29.84R
FAIRMONT       CLOUDY    64  57  77 NW9       29.84R
GLENCOE        CLEAR     61  56  82 NW13      29.79R
FARIBAULT      PTSUNNY   68  61  77 W8        29.79S
OWATONNA       PTSUNNY   64  63  94 SW8       29.80R
WASECA         CLOUDY    61  55  82 SW8       29.83R
ALBERT LEA     CLOUDY    64  63  94 SW9G17    29.81S
$$
MNZ078>079-086>088-094>096-201400-
   Southeast Minnesota

CITY           SKY/WX    TMP DP  RH WIND       PRES   REMARKS
ROCHESTER      LGT RAIN  64  62  93 W12       29.82R
RED WING       MOSUNNY   68  63  83 W10       29.73S
STANTON        MOSUNNY   66  62  88 W7        29.76R
DODGE CENTER   PTSUNNY   64  63  94 SW13      29.80R
WINONA         SUNNY     70  63  78 W5        29.75F
AUSTIN         PTSUNNY   64  61  88 SW10      29.83R
PRESTON        CLOUDY    63  63 100 SW10      29.81R
$$
ABBREVIATIONS USED IN REMARKS
   TC - TEMPERATURES IN CELSIUS
  WCI - WIND CHILL INDEX
   HX - HEAT INDEX
  VSB - VISIBILITY
$$



USA.gov is the U.S. government's official web portal to all federal, state and local government web resources and services.